User: anonymous   Login
Location: Ar Ranvel
(48.3000°N, 4.8833°W)
Time: 09:55:49
(UTC+00:00)
Language:

Cosmos 1900 - Orbit

View from above orbital plane
View from above orbital plane
View from above satellite
View from above satellite

Ground track
Ground track

The orbit data is extracted from the following two-line orbital elements,

1 18665U 87101A   21267.89394122 -.00000033  00000-0  16161-4 0  9995
2 18665  66.0845 165.3398 0026463  81.3243 279.0859 14.54512290797369
Epoch (UTC): 24 September 2021 21:27:16
Eccentricity: 0.0026463
inclination: 66.0845°
perigee height: 692 km
apogee height: 730 km
right ascension of ascending node: 165.3398°
argument of perigee: 81.3243°
revolutions per day: 14.54512290
mean anomaly at epoch: 279.0859°
orbit number at epoch: 79736

The dashed part of the orbit path shows where the satellite is in the earth's shadow,  

DLR